Total_Precipitation_Accumulation
2.41 2.32 3.41 3.54 2.95 2.33 2.13 2.07 1.86 1.69 1.69 1.70 1.51 1.40 1.32 1.27 1.08 0.94 0.86 0.79 0.77 0.78 0.85 0.84 0.86 0.94 0.99 0.94 0.87 1.09 1.17 1.11 1.03 1.04 1.17 1.30 1.38 1.51 1.73 1.99 2.34 2.63 2.33
2.00 1.99 3.16 3.37 2.85 2.27 1.96 1.92 1.85 1.71 1.75 1.66 1.62 1.51 1.42 1.28 1.11 0.98 0.83 0.81 0.82 0.82 0.81 0.84 0.89 0.89 0.95 1.01 1.00 1.15 1.18 1.04 0.97 1.07 1.37 1.57 1.51 1.53 1.69 1.79 2.21 2.51 2.24
1.55 1.64 2.42 3.08 2.80 2.30 1.99 1.85 1.84 1.77 1.84 1.77 1.75 1.58 1.46 1.35 1.23 1.08 0.98 1.03 1.01 0.92 0.86 0.83 0.91 0.94 0.95 1.12 1.11 1.10 1.06 1.03 1.03 1.23 1.75 2.47 2.01 1.63 1.72 1.78 2.03 1.96 1.97
1.43 1.52 1.86 2.57 2.47 2.06 1.86 1.84 1.90 1.86 1.97 1.89 1.74 1.51 1.41 1.40 1.34 1.19 1.10 1.21 1.04 0.92 0.88 0.88 0.94 1.04 1.01 1.12 1.10 1.02 0.96 1.02 1.19 1.38 1.84 2.38 2.43 1.93 1.88 1.98 1.98 1.90 1.95
1.41 1.50 2.02 2.57 2.30 2.01 1.83 1.95 2.04 2.02 2.02 1.84 1.60 1.39 1.39 1.42 1.39 1.34 1.32 1.28 1.05 0.96 0.90 0.89 0.95 0.99 0.99 1.03 1.00 1.00 0.97 1.11 1.40 1.44 1.68 2.08 2.52 2.30 1.88 1.93 1.98 1.98 2.13
1.43 1.52 1.90 2.40 2.23 2.01 1.82 1.94 2.03 2.10 2.09 1.96 1.68 1.42 1.39 1.40 1.36 1.33 1.37 1.23 1.10 1.00 0.91 0.89 0.93 0.97 0.97 0.99 1.02 1.02 1.10 1.28 1.34 1.46 1.74 2.14 2.38 2.18 1.80 1.84 1.99 2.20 2.20
1.30 1.33 1.55 2.12 2.16 1.99 1.90 2.10 2.16 2.18 2.23 2.17 1.85 1.63 1.51 1.41 1.37 1.38 1.41 1.28 1.20 1.11 1.04 1.01 1.03 1.03 1.00 1.05 1.02 0.98 0.98 1.02 1.06 1.31 1.56 2.14 2.21 2.02 1.83 1.83 1.87 1.98 2.11
1.40 1.31 1.29 1.85 2.08 2.06 2.09 2.14 2.16 2.16 2.18 2.18 1.93 1.75 1.57 1.44 1.37 1.47 1.52 1.34 1.25 1.13 1.07 1.08 1.13 1.17 1.13 1.10 1.06 1.02 0.99 0.84 0.82 1.04 1.35 1.86 2.13 2.06 1.89 1.95 2.06 2.03 2.15
1.55 1.48 1.34 1.46 1.76 2.07 2.11 1.99 1.98 1.95 1.97 2.07 1.86 1.71 1.54 1.42 1.31 1.37 1.42 1.33 1.28 1.25 1.23 1.20 1.30 1.28 1.15 1.14 1.13 1.06 1.01 0.85 0.87 1.03 1.05 1.63 2.08 2.10 1.88 1.89 2.12 2.24 2.25
1.74 1.60 1.40 1.33 1.41 1.51 1.71 1.83 1.96 1.99 1.96 2.02 1.81 1.62 1.48 1.38 1.23 1.26 1.22 1.23 1.33 1.38 1.43 1.43 1.44 1.38 1.32 1.21 1.11 1.02 0.95 0.78 0.86 0.92 1.19 1.56 2.08 2.22 2.02 1.81 1.80 1.89 1.96
1.51 1.43 1.47 1.46 1.48 1.52 1.48 1.52 1.80 1.90 1.92 1.80 1.73 1.61 1.44 1.18 1.02 1.07 1.06 1.29 1.43 1.54 1.60 1.61 1.57 1.55 1.40 1.19 1.08 0.94 0.79 0.75 0.88 0.98 1.36 1.79 2.19 2.35 2.13 1.76 1.67 1.61 1.68
1.22 1.20 1.27 1.31 1.44 1.46 1.32 1.53 1.82 1.67 1.58 1.34 1.35 1.22 1.22 1.14 1.06 0.88 1.01 1.35 1.49 1.52 1.52 1.58 1.65 1.47 1.19 0.89 0.83 0.78 0.70 0.67 0.73 0.86 1.34 2.01 2.31 2.37 2.12 1.86 1.76 1.70 1.76
1.03 1.01 0.98 1.02 1.09 1.22 1.38 1.62 1.92 1.98 1.79 1.56 1.31 1.22 1.23 1.12 1.01 0.91 0.91 1.06 1.18 1.21 1.07 1.11 1.13 1.00 0.91 0.83 0.80 0.69 0.67 0.65 0.71 0.85 1.46 2.05 2.32 2.41 2.23 2.07 2.04 2.02 2.02
0.85 0.97 0.79 0.70 0.85 1.01 1.14 1.27 1.55 1.63 1.55 1.42 1.21 1.13 1.22 1.20 1.07 1.04 1.03 1.07 1.09 1.07 1.08 1.05 1.09 1.05 0.88 0.78 0.77 0.80 0.76 0.72 0.78 0.99 1.47 1.92 2.30 2.53 2.46 2.40 2.39 2.28 2.33
0.82 0.91 0.82 0.70 0.69 0.76 0.83 0.94 1.09 1.26 1.33 1.34 1.28 1.09 1.11 1.18 1.13 1.14 1.10 1.13 1.02 0.95 1.00 1.06 1.08 1.10 0.99 0.85 0.80 0.80 0.86 0.80 0.79 0.94 1.24 1.64 2.14 2.57 2.74 2.68 2.44 2.30 2.33
0.73 0.85 0.85 0.75 0.73 0.76 0.72 0.72 0.74 0.90 1.07 1.19 1.22 1.12 1.13 1.18 1.16 1.23 1.18 1.13 1.06 0.96 0.99 1.17 1.13 1.15 1.12 1.05 0.88 0.85 0.85 0.81 0.78 0.85 1.02 1.34 1.64 1.99 2.44 2.79 2.62 2.36 2.19
0.68 0.75 0.81 0.80 0.84 0.86 0.81 0.79 0.66 0.71 0.82 0.98 1.11 1.11 1.17 1.13 1.07 1.14 1.15 1.09 1.06 1.06 1.07 1.13 1.16 1.21 1.11 1.02 0.98 0.90 0.86 0.82 0.73 0.82 0.83 0.96 1.04 1.31 1.73 2.17 2.49 2.47 2.36
0.75 0.81 0.86 0.86 0.90 0.92 0.94 0.93 0.85 0.89 0.96 1.02 1.16 1.13 1.11 1.17 1.14 1.14 1.17 1.16 1.17 1.21 1.20 1.23 1.29 1.27 1.19 1.17 1.13 1.09 0.91 0.90 0.80 0.82 0.81 0.83 0.90 0.88 1.07 1.35 1.71 2.04 2.31
0.69 0.74 0.80 0.87 0.89 0.92 0.95 1.04 1.16 1.20 1.21 1.20 1.25 1.19 1.11 1.14 1.21 1.33 1.36 1.37 1.34 1.35 1.35 1.30 1.33 1.23 1.21 1.22 1.15 1.16 1.05 1.00 0.93 0.80 0.87 0.89 0.89 0.84 0.88 0.83 0.95 1.16 1.53
0.58 0.64 0.72 0.80 0.96 1.07 1.13 1.14 1.30 1.35 1.42 1.49 1.52 1.38 1.25 1.30 1.44 1.64 1.72 1.61 1.57 1.58 1.57 1.52 1.57 1.44 1.31 1.34 1.23 1.20 1.11 0.98 1.01 0.97 0.93 0.93 0.98 0.94 0.87 0.76 0.72 0.66 0.84
0.47 0.52 0.61 0.69 0.87 0.98 1.03 1.15 1.34 1.51 1.67 1.82 1.90 1.78 1.62 1.60 1.78 1.92 1.84 1.91 1.92 1.80 1.81 1.87 1.91 1.87 1.66 1.52 1.58 1.47 1.19 0.94 1.00 0.97 0.92 0.95 1.02 1.12 1.13 1.00 0.85 0.76 0.73
0.31 0.36 0.45 0.54 0.62 0.76 0.93 1.18 1.38 1.67 1.74 1.81 1.94 1.98 1.89 1.83 2.01 2.05 2.12 2.20 2.22 2.21 2.16 2.05 2.18 2.33 2.05 1.79 1.89 2.19 1.81 1.39 1.01 0.80 0.87 0.91 1.01 1.25 1.32 1.13 0.93 0.86 0.85
0.24 0.25 0.34 0.46 0.59 0.82 1.05 1.39 1.68 1.96 2.04 2.08 2.02 2.05 2.10 2.14 2.22 2.26 2.31 2.36 2.37 2.21 2.20 2.30 2.45 2.80 2.60 2.21 1.99 2.26 2.12 1.80 1.46 1.01 0.90 0.94 1.03 1.20 1.33 1.34 1.22 1.15 1.06
0.23 0.29 0.41 0.59 0.79 1.06 1.38 1.76 2.04 2.30 2.42 2.26 2.20 2.19 2.17 2.13 2.17 2.28 2.29 2.27 2.24 2.18 2.23 2.29 2.35 2.77 2.99 2.69 2.32 1.92 1.72 1.69 1.77 1.48 1.08 1.00 1.08 1.09 1.21 1.29 1.24 1.30 1.29
0.38 0.46 0.64 0.90 1.20 1.47 1.70 1.90 2.14 2.29 2.30 2.25 2.18 2.17 2.09 2.05 2.03 2.05 2.06 2.15 2.17 2.22 2.27 2.42 2.54 2.82 2.85 2.84 2.64 2.42 2.20 1.88 1.54 1.62 1.55 1.27 1.19 1.09 1.18 1.31 1.36 1.43 1.46
0.55 0.70 0.88 1.08 1.38 1.57 1.70 1.80 1.96 2.12 2.17 2.17 2.15 2.16 2.16 2.13 2.02 1.94 1.88 1.96 2.09 2.23 2.28 2.38 2.53 2.77 2.88 2.95 2.86 2.58 2.49 2.33 2.04 1.91 1.65 1.49 1.48 1.25 1.21 1.25 1.29 1.42 1.57